Location: ????????
(60.5616°N, 46.8254°E)
Time: 08:53:24
(UTC+00:00)

NOSS 3-2 (C) - Pass Details

Date: 18 February 2020
Orbit: 813 x 1399 km, 63.4° (Epoch: 06 March)

Event Time Altitude Azimuth Distance (km) Brightness Sun altitude
Rises 16:31:58 0° 282° (WNW) 3,680 8.1 -20.5°
Reaches altitude 10° 16:34:24 10° 285° (WNW) 2,807 7.1 -20.8°
Maximum altitude 16:41:06 74° 11° (N) 1,179 3.8 -21.6°
Enters shadow 16:44:26 36° 88° (E) 1,782 4.3 -22.0°
